AEE2VR ELLX-EGSS

Flight info

Callsign AEE2VR
Flight time 0h 57m
Altitude 36000
Route LNO N852 TERLA L608 BUB M624 NIK DCT KOZUF DCT IMPOH DCT SASKI L608 SUMUM Y6 TOSVA
Aircraft A321/M-SDE3FGHIRWY/LB1

Departure

Time 2026-05-04 13:22
Airport Luxembourg-Findel International Airport (ELLX)

Arrival

Time 2026-05-04 14:19
Airport London Stansted Airport (EGSS)
Time Latitude Longitude Altitude Speed Heading
2026-05-04 13:02 49.63255 6.21431 1230 ft 0 kts 240°
2026-05-04 13:13 49.63262 6.21447 1230 ft 4 kts 233°
2026-05-04 13:14 49.63278 6.21467 1230 ft 4 kts 162°
2026-05-04 13:14 49.63284 6.21464 1230 ft 0 kts 150°
2026-05-04 13:17 49.63281 6.21466 1230 ft 2 kts 150°
2026-05-04 13:17 49.63255 6.21499 1230 ft 8 kts 138°
2026-05-04 13:17 49.63196 6.21559 1230 ft 12 kts 150°
2026-05-04 13:18 49.63121 6.21624 1229 ft 13 kts 150°
2026-05-04 13:18 49.63106 6.21746 1226 ft 14 kts 64°
2026-05-04 13:18 49.63152 6.21887 1227 ft 15 kts 64°
2026-05-04 13:18 49.63196 6.22031 1228 ft 15 kts 65°
2026-05-04 13:19 49.63249 6.22205 1226 ft 22 kts 64°
2026-05-04 13:19 49.63327 6.22456 1218 ft 28 kts 63°
2026-05-04 13:19 49.63416 6.22700 1215 ft 27 kts 60°
2026-05-04 13:19 49.63508 6.22948 1214 ft 27 kts 60°
2026-05-04 13:20 49.63596 6.23185 1213 ft 18 kts 60°
2026-05-04 13:20 49.63658 6.23345 1212 ft 15 kts 59°
2026-05-04 13:20 49.63652 6.23438 1212 ft 0 kts 137°
2026-05-04 13:21 49.63640 6.23453 1212 ft 7 kts 142°
2026-05-04 13:21 49.63581 6.23512 1215 ft 11 kts 149°
2026-05-04 13:21 49.63526 6.23523 1216 ft 4 kts 238°
2026-05-04 13:21 49.63493 6.23434 1216 ft 33 kts 240°
2026-05-04 13:22 49.63235 6.22744 1208 ft 112 kts 240°
2026-05-04 13:22 49.62745 6.21430 1226 ft 164 kts 240°
2026-05-04 13:22 49.62170 6.19860 1747 ft 166 kts 238°
2026-05-04 13:22 49.61605 6.18305 2475 ft 166 kts 237°
2026-05-04 13:23 49.61029 6.16750 3148 ft 171 kts 237°
2026-05-04 13:23 49.60399 6.15094 3509 ft 192 kts 237°
2026-05-04 13:23 49.59685 6.13207 3817 ft 214 kts 237°
2026-05-04 13:23 49.58888 6.11090 3965 ft 243 kts 237°
2026-05-04 13:24 49.58025 6.08785 4007 ft 251 kts 237°
2026-05-04 13:24 49.57156 6.06456 4010 ft 250 kts 237°
2026-05-04 13:24 49.56548 6.03942 4003 ft 258 kts 263°
2026-05-04 13:25 49.58375 5.99304 4025 ft 280 kts 335°
2026-05-04 13:25 49.60319 5.98876 4731 ft 287 kts
2026-05-04 13:25 49.62326 5.99196 5504 ft 294 kts
2026-05-04 13:25 49.64359 5.99686 6324 ft 298 kts
2026-05-04 13:26 49.66429 6.00108 7140 ft 302 kts
2026-05-04 13:26 49.68537 6.00390 8042 ft 305 kts
2026-05-04 13:26 49.70665 6.00539 8980 ft 307 kts
2026-05-04 13:26 49.72809 6.00593 9901 ft 310 kts 359°
2026-05-04 13:27 49.75018 6.00596 10355 ft 328 kts 359°
2026-05-04 13:27 49.77379 6.00573 10540 ft 351 kts 358°
2026-05-04 13:27 49.79907 6.00547 10917 ft 364 kts 358°
2026-05-04 13:27 49.82454 6.00530 11540 ft 368 kts 359°
2026-05-04 13:28 49.85006 6.00204 12238 ft 369 kts 345°
2026-05-04 13:28 49.87346 5.98749 12884 ft 368 kts 326°
2026-05-04 13:28 49.89374 5.96252 13547 ft 369 kts 316°
2026-05-04 13:28 49.91273 5.93636 14144 ft 372 kts 316°
2026-05-04 13:29 49.93216 5.90952 14738 ft 376 kts 316°
2026-05-04 13:29 49.95179 5.88241 15308 ft 379 kts 316°
2026-05-04 13:29 49.97185 5.85475 15882 ft 382 kts 316°
2026-05-04 13:29 49.99183 5.82723 16444 ft 386 kts 316°
2026-05-04 13:30 50.01176 5.79970 16989 ft 390 kts 316°
2026-05-04 13:30 50.03214 5.77158 17541 ft 393 kts 316°
2026-05-04 13:30 50.05267 5.74325 18092 ft 396 kts 315°
2026-05-04 13:30 50.07362 5.71429 18589 ft 400 kts 316°
2026-05-04 13:31 50.09424 5.68579 19044 ft 403 kts 315°
2026-05-04 13:31 50.11522 5.65673 19495 ft 405 kts 315°
2026-05-04 13:31 50.13635 5.62738 19968 ft 408 kts 315°
2026-05-04 13:31 50.15757 5.59782 20427 ft 410 kts 315°
2026-05-04 13:32 50.17888 5.56808 20898 ft 412 kts 315°
2026-05-04 13:32 50.20031 5.53817 21348 ft 415 kts 315°
2026-05-04 13:32 50.22192 5.50801 21821 ft 417 kts 315°
2026-05-04 13:32 50.24367 5.47765 22251 ft 421 kts 315°
2026-05-04 13:33 50.26555 5.44711 22841 ft 425 kts 315°
2026-05-04 13:33 50.28774 5.41606 23445 ft 430 kts 314°
2026-05-04 13:33 50.31012 5.38466 23937 ft 434 kts 314°
2026-05-04 13:33 50.33258 5.35312 24341 ft 436 kts 314°
2026-05-04 13:34 50.35523 5.32124 24724 ft 438 kts 314°
2026-05-04 13:34 50.37790 5.28928 25091 ft 440 kts 314°
2026-05-04 13:34 50.40067 5.25715 25449 ft 442 kts 314°
2026-05-04 13:34 50.42359 5.22478 25811 ft 444 kts 314°
2026-05-04 13:35 50.44653 5.19232 26175 ft 446 kts 314°
2026-05-04 13:35 50.49277 5.12682 26876 ft 450 kts 314°
2026-05-04 13:35 50.51610 5.09373 27249 ft 452 kts 314°
2026-05-04 13:36 50.53951 5.06043 27588 ft 455 kts 314°
2026-05-04 13:36 50.56299 5.02693 27935 ft 457 kts 314°
2026-05-04 13:36 50.58655 4.99328 28276 ft 459 kts 314°
2026-05-04 13:36 50.61023 4.95945 28624 ft 461 kts 314°
2026-05-04 13:37 50.63405 4.92540 28942 ft 463 kts 314°
2026-05-04 13:37 50.65803 4.89108 29253 ft 466 kts 314°
2026-05-04 13:37 50.68206 4.85658 29558 ft 468 kts 314°
2026-05-04 13:37 50.69797 4.83371 29755 ft 469 kts 314°
2026-05-04 13:38 50.73036 4.78709 30126 ft 472 kts 314°
2026-05-04 13:38 50.75470 4.75200 30359 ft 474 kts 313°
2026-05-04 13:38 50.77900 4.71696 30679 ft 473 kts 313°
2026-05-04 13:38 50.80328 4.68192 31055 ft 472 kts 313°
2026-05-04 13:39 50.82749 4.64693 31395 ft 471 kts 313°
2026-05-04 13:39 50.84350 4.62376 31625 ft 470 kts 313°
2026-05-04 13:39 50.87545 4.57743 32091 ft 469 kts 312°
2026-05-04 13:39 50.89936 4.54262 32449 ft 467 kts 312°
2026-05-04 13:40 50.92354 4.50809 32805 ft 467 kts 313°
2026-05-04 13:40 50.94820 4.47445 33152 ft 467 kts 314°
2026-05-04 13:40 50.97309 4.44152 33499 ft 466 kts 315°
2026-05-04 13:40 50.98998 4.41938 33733 ft 465 kts 315°
2026-05-04 13:41 51.01480 4.38682 34063 ft 464 kts 315°
2026-05-04 13:41 51.03956 4.35410 34338 ft 462 kts 314°
2026-05-04 13:41 51.06423 4.32110 34614 ft 462 kts 314°
2026-05-04 13:42 51.11274 4.25532 35135 ft 460 kts 314°
2026-05-04 13:42 51.13705 4.22214 35427 ft 460 kts 314°
2026-05-04 13:42 51.15985 4.18598 35716 ft 453 kts 305°
2026-05-04 13:42 51.17855 4.14603 35940 ft 448 kts 297°
2026-05-04 13:43 51.20924 4.06115 35987 ft 443 kts 295°
2026-05-04 13:43 51.23977 3.97589 36000 ft 442 kts 295°
2026-05-04 13:44 51.27024 3.89055 35987 ft 442 kts 295°
2026-05-04 13:44 51.30062 3.80519 36011 ft 441 kts 295°
2026-05-04 13:45 51.33089 3.71965 35997 ft 443 kts 295°
2026-05-04 13:45 51.35736 3.63154 36002 ft 436 kts 283°
2026-05-04 13:46 51.37379 3.53829 36007 ft 435 kts 281°
2026-05-04 13:46 51.39022 3.44493 36026 ft 436 kts 281°
2026-05-04 13:47 51.40656 3.35151 36052 ft 436 kts 281°
2026-05-04 13:47 51.42284 3.25786 36039 ft 436 kts 281°
2026-05-04 13:48 51.43907 3.16411 36037 ft 437 kts 281°
2026-05-04 13:48 51.44714 3.11713 35828 ft 437 kts 281°
2026-05-04 13:48 51.45516 3.07011 35578 ft 436 kts 280°
2026-05-04 13:49 51.46302 3.02313 35192 ft 436 kts 280°
2026-05-04 13:49 51.47079 2.97604 34432 ft 438 kts 279°
2026-05-04 13:49 51.47854 2.92864 33589 ft 440 kts 279°
2026-05-04 13:49 51.48631 2.88096 32717 ft 442 kts 279°
2026-05-04 13:50 51.49410 2.83328 31831 ft 444 kts 280°
2026-05-04 13:50 51.50194 2.78525 30975 ft 445 kts 280°
2026-05-04 13:50 51.50977 2.73719 30400 ft 441 kts 280°
2026-05-04 13:50 51.51751 2.68991 29815 ft 437 kts 280°
2026-05-04 13:51 51.52515 2.64300 29239 ft 431 kts 281°
2026-05-04 13:51 51.53262 2.59679 28690 ft 424 kts 280°
2026-05-04 13:51 51.53994 2.55120 28139 ft 418 kts 281°
2026-05-04 13:51 51.54722 2.50628 27605 ft 413 kts 282°
2026-05-04 13:52 51.56623 2.42073 26539 ft 404 kts 287°
2026-05-04 13:52 51.57584 2.37864 26020 ft 399 kts 287°
2026-05-04 13:52 51.58534 2.33700 25503 ft 395 kts 287°
2026-05-04 13:53 51.59472 2.29586 24990 ft 390 kts 287°
2026-05-04 13:53 51.60401 2.25506 24495 ft 386 kts 287°
2026-05-04 13:53 51.61319 2.21471 24005 ft 382 kts 288°
2026-05-04 13:54 51.63558 2.13817 23031 ft 376 kts 303°
2026-05-04 13:54 51.65235 2.10605 22562 ft 373 kts 313°
2026-05-04 13:54 51.69411 2.05828 21821 ft 362 kts 328°
2026-05-04 13:55 51.71634 2.03868 21733 ft 367 kts 330°
2026-05-04 13:55 51.76180 2.00079 21569 ft 368 kts 330°
2026-05-04 13:55 51.78432 1.98218 21269 ft 370 kts 330°
2026-05-04 13:56 51.80757 1.96277 20322 ft 379 kts 330°
2026-05-04 13:56 51.83093 1.94301 19695 ft 379 kts 330°
2026-05-04 13:56 51.87668 1.90186 18527 ft 373 kts 322°
2026-05-04 13:57 51.89603 1.87436 18123 ft 368 kts 311°
2026-05-04 13:57 51.91179 1.84168 17566 ft 366 kts 300°
2026-05-04 13:58 51.94785 1.73379 16489 ft 360 kts 297°
2026-05-04 13:58 51.97142 1.66263 15771 ft 356 kts 297°
2026-05-04 13:58 51.98302 1.62738 15416 ft 353 kts 296°
2026-05-04 13:59 51.99436 1.59276 15061 ft 351 kts 296°
2026-05-04 13:59 52.00596 1.55732 14706 ft 349 kts 297°
2026-05-04 13:59 52.02838 1.48862 14019 ft 345 kts 296°
2026-05-04 14:00 52.03959 1.45419 13667 ft 343 kts 296°
2026-05-04 14:00 52.06165 1.38625 12952 ft 338 kts 296°
2026-05-04 14:00 52.07259 1.35252 12626 ft 336 kts 296°
2026-05-04 14:01 52.08334 1.31941 12385 ft 324 kts 296°
2026-05-04 14:01 52.09361 1.28783 12252 ft 309 kts 296°
2026-05-04 14:01 52.11102 1.22699 11881 ft 285 kts 282°
2026-05-04 14:02 52.11343 1.19514 11959 ft 288 kts 269°
2026-05-04 14:02 52.11093 1.16297 11711 ft 287 kts 255°
2026-05-04 14:02 52.10568 1.13169 11488 ft 286 kts 255°
2026-05-04 14:02 52.10047 1.10049 11272 ft 285 kts 255°
2026-05-04 14:03 52.09531 1.06937 11053 ft 284 kts 255°
2026-05-04 14:03 52.09016 1.03836 10827 ft 284 kts 255°
2026-05-04 14:03 52.08500 1.00743 10626 ft 283 kts 255°
2026-05-04 14:03 52.07988 0.97671 10409 ft 282 kts 255°
2026-05-04 14:04 52.06964 0.91544 9977 ft 280 kts 255°
2026-05-04 14:04 52.06452 0.88500 9749 ft 278 kts 255°
2026-05-04 14:04 52.05941 0.85476 9533 ft 277 kts 254°
2026-05-04 14:05 52.04925 0.79456 9119 ft 276 kts 254°
2026-05-04 14:05 52.04417 0.76459 8909 ft 275 kts 254°
2026-05-04 14:05 52.03908 0.73469 8688 ft 275 kts 254°
2026-05-04 14:06 52.03398 0.70477 8482 ft 274 kts 254°
2026-05-04 14:06 52.02893 0.67508 8275 ft 270 kts 254°
2026-05-04 14:06 52.02403 0.64622 8145 ft 259 kts 254°
2026-05-04 14:06 52.01934 0.61865 8045 ft 247 kts 254°
2026-05-04 14:07 52.01567 0.59204 8007 ft 242 kts 264°
2026-05-04 14:07 52.01419 0.56450 7642 ft 244 kts 264°
2026-05-04 14:07 52.01285 0.53721 7309 ft 243 kts 265°
2026-05-04 14:07 52.01155 0.50985 6933 ft 244 kts 265°
2026-05-04 14:08 52.01026 0.48247 6593 ft 242 kts 265°
2026-05-04 14:08 52.00900 0.45543 6365 ft 237 kts 264°
2026-05-04 14:08 52.00783 0.42891 6139 ft 236 kts 265°
2026-05-04 14:08 52.00669 0.40252 5882 ft 234 kts 265°
2026-05-04 14:09 52.00440 0.34999 5571 ft 233 kts 265°
2026-05-04 14:09 52.00326 0.32371 5442 ft 234 kts 265°
2026-05-04 14:10 51.99671 0.27268 5184 ft 232 kts 240°
2026-05-04 14:10 51.98682 0.25196 5055 ft 233 kts 223°
2026-05-04 14:10 51.97498 0.23415 4938 ft 232 kts 223°
2026-05-04 14:10 51.96318 0.21629 4805 ft 232 kts 223°
2026-05-04 14:11 51.95159 0.19865 4676 ft 231 kts 223°
2026-05-04 14:11 51.92805 0.16258 4413 ft 232 kts 223°
2026-05-04 14:11 51.91635 0.14466 4234 ft 232 kts 223°
2026-05-04 14:12 51.90475 0.12697 4032 ft 231 kts 223°
2026-05-04 14:12 51.89305 0.10914 3774 ft 231 kts 223°
2026-05-04 14:12 51.86970 0.07358 3094 ft 231 kts 224°
2026-05-04 14:13 51.85802 0.05576 2848 ft 231 kts 224°
2026-05-04 14:13 51.84636 0.03818 2636 ft 226 kts 224°
2026-05-04 14:13 51.83500 0.02121 2530 ft 221 kts 223°
2026-05-04 14:13 51.82366 0.00432 2515 ft 223 kts 223°
2026-05-04 14:14 51.81233 -0.01254 2547 ft 218 kts 223°
2026-05-04 14:14 51.78489 -0.02356 2549 ft 212 kts 156°
2026-05-04 14:14 51.77336 -0.00967 2556 ft 207 kts 124°
2026-05-04 14:15 51.76284 0.03168 2492 ft 191 kts 86°
2026-05-04 14:15 51.77341 0.06813 2512 ft 181 kts 41°
2026-05-04 14:16 51.79180 0.09546 2513 ft 180 kts 41°
2026-05-04 14:16 51.80085 0.10895 2397 ft 174 kts 41°
2026-05-04 14:17 51.81778 0.13423 1976 ft 158 kts 40°
2026-05-04 14:17 51.82578 0.14617 1768 ft 154 kts 40°
2026-05-04 14:17 51.84045 0.16811 1383 ft 135 kts 38°
2026-05-04 14:18 51.84722 0.17824 1185 ft 134 kts 40°
2026-05-04 14:18 51.86072 0.19846 828 ft 133 kts 40°
2026-05-04 14:19 51.87411 0.21852 415 ft 130 kts 39°
2026-05-04 14:19 51.88065 0.22830 332 ft 120 kts 41°
2026-05-04 14:19 51.88567 0.23579 351 ft 65 kts 43°
2026-05-04 14:19 51.88792 0.23931 352 ft 35 kts 51°
2026-05-04 14:20 51.88881 0.24218 350 ft 19 kts 74°
2026-05-04 14:20 51.88901 0.24332 347 ft 0 kts 74°
2026-05-04 14:21 51.88903 0.24345 355 ft 2 kts 74°
2026-05-04 14:21 51.88909 0.24379 351 ft 4 kts 73°
2026-05-04 14:21 51.88918 0.24426 354 ft 6 kts 74°
2026-05-04 14:21 51.88906 0.24510 355 ft 12 kts 126°
2026-05-04 14:22 51.88826 0.24646 356 ft 18 kts 133°
2026-05-04 14:22 51.88833 0.24762 358 ft 17 kts 51°
2026-05-04 14:22 51.88923 0.24901 356 ft 19 kts 41°
2026-05-04 14:22 51.89025 0.25050 359 ft 21 kts 43°
2026-05-04 14:23 51.89142 0.25335 358 ft 13 kts 126°
2026-05-04 14:23 51.89085 0.25438 356 ft 8 kts 134°
2026-05-04 14:23 51.89092 0.25514 354 ft 9 kts 42°
2026-05-04 14:24 51.89130 0.25570 359 ft 0 kts 42°